Wetterdaten von Freitag, 23.10.2020 17:20 bis Samstag, 24.10.2020 17:10
Datum/Zeit Temp. A. Feuchte Luftdruck Regen Solar Sonne Wind Windben Richtung
23.10.2020 17:20 14,4 C 95 % 1.009,7 hpa 27 W/m N
23.10.2020 17:30 14,4 C 95 % 1.009,4 hpa 24 W/m N
23.10.2020 17:40 14,3 C 95 % 1.009,5 hpa 17 W/m N
23.10.2020 17:50 14,3 C 95 % 1.009,5 hpa 11 W/m N
23.10.2020 18:00 14,2 C 95 % 1.009,6 hpa 6 W/m N
23.10.2020 18:10 14,2 C 94 % 1.009,6 hpa 6 W/m N
23.10.2020 18:20 14,1 C 94 % 1.009,6 hpa 6 W/m N
23.10.2020 18:30 13,9 C 94 % 1.009,8 hpa N
23.10.2020 18:40 13,8 C 94 % 1.009,8 hpa N
23.10.2020 18:50 13,7 C 94 % 1.009,9 hpa N
23.10.2020 19:00 13,6 C 94 % 1.009,9 hpa N
23.10.2020 19:10 13,4 C 94 % 1.010,0 hpa N
23.10.2020 19:20 13,3 C 94 % 1.010,2 hpa N
23.10.2020 19:30 13,3 C 94 % 1.010,3 hpa N
23.10.2020 19:40 13,2 C 94 % 1.010,3 hpa N
23.10.2020 19:50 13,0 C 94 % 1.010,3 hpa N
23.10.2020 20:00 12,9 C 94 % 1.010,3 hpa N
23.10.2020 20:10 12,7 C 94 % 1.010,0 hpa N
23.10.2020 20:20 12,6 C 94 % 1.009,8 hpa N
23.10.2020 20:30 12,4 C 94 % 1.010,0 hpa N
23.10.2020 20:40 12,3 C 94 % 1.010,0 hpa N
23.10.2020 20:50 12,2 C 94 % 1.010,0 hpa N
23.10.2020 21:00 12,1 C 94 % 1.010,1 hpa N
23.10.2020 21:10 11,9 C 94 % 1.010,0 hpa N
23.10.2020 21:20 11,7 C 94 % 1.010,1 hpa N
23.10.2020 21:30 11,5 C 93 % 1.010,1 hpa N
23.10.2020 21:40 11,3 C 94 % 1.010,1 hpa N
23.10.2020 21:50 11,2 C 93 % 1.010,2 hpa N
23.10.2020 22:00 11,1 C 93 % 1.010,2 hpa N
23.10.2020 22:10 11,1 C 94 % 1.010,2 hpa N
23.10.2020 22:20 11,0 C 94 % 1.010,2 hpa N
23.10.2020 22:30 10,9 C 94 % 1.010,4 hpa N
23.10.2020 22:40 10,8 C 94 % 1.010,6 hpa N
23.10.2020 22:50 10,9 C 94 % 1.010,5 hpa N
23.10.2020 23:00 11,1 C 94 % 1.010,9 hpa N
23.10.2020 23:10 11,2 C 94 % 1.010,9 hpa 4,8 km/h N
23.10.2020 23:20 11,3 C 94 % 1.010,8 hpa 4,8 km/h N
23.10.2020 23:30 11,4 C 94 % 1.011,0 hpa 4,8 km/h N
23.10.2020 23:40 11,5 C 94 % 1.011,3 hpa 1,6 km/h N
23.10.2020 23:50 11,6 C 94 % 1.011,2 hpa N
24.10.2020 00:00 11,7 C 94 % 1.011,3 hpa 3,2 km/h N
24.10.2020 00:10 11,7 C 95 % 1.011,3 hpa 6,4 km/h N
24.10.2020 00:20 11,8 C 94 % 1.011,4 hpa 1,6 km/h N
24.10.2020 00:30 11,9 C 94 % 1.011,4 hpa 1,6 km/h 8,0 km/h S/SW
24.10.2020 00:40 12,1 C 95 % 1.011,4 hpa 6,4 km/h N
24.10.2020 00:50 12,2 C 95 % 1.011,4 hpa 9,7 km/h N
24.10.2020 01:00 12,2 C 95 % 1.011,3 hpa 4,8 km/h N
24.10.2020 01:10 12,2 C 95 % 1.011,4 hpa 0,254 l 3,2 km/h N
24.10.2020 01:20 12,2 C 95 % 1.011,4 hpa 6,4 km/h N
24.10.2020 01:30 12,1 C 95 % 1.011,4 hpa N
24.10.2020 01:40 12,1 C 94 % 1.011,3 hpa N
24.10.2020 01:50 11,9 C 94 % 1.011,3 hpa N
24.10.2020 02:00 11,8 C 94 % 1.011,3 hpa N
24.10.2020 02:10 11,7 C 94 % 1.011,3 hpa N
24.10.2020 02:20 11,6 C 94 % 1.011,2 hpa N
24.10.2020 02:30 11,5 C 94 % 1.011,2 hpa N
24.10.2020 02:40 11,3 C 94 % 1.011,3 hpa N
24.10.2020 02:50 11,3 C 94 % 1.011,4 hpa N
24.10.2020 03:00 11,2 C 94 % 1.011,5 hpa 6,4 km/h N
24.10.2020 03:10 11,4 C 94 % 1.011,2 hpa 1,6 km/h 8,0 km/h W
24.10.2020 03:20 11,6 C 94 % 1.011,5 hpa 1,6 km/h 11,3 km/h W
24.10.2020 03:30 11,7 C 95 % 1.011,4 hpa 1,6 km/h 9,7 km/h S/SW
24.10.2020 03:40 11,7 C 95 % 1.011,5 hpa 6,4 km/h N
24.10.2020 03:50 11,8 C 95 % 1.011,5 hpa 1,6 km/h N
24.10.2020 04:00 11,8 C 95 % 1.011,6 hpa 4,8 km/h N
24.10.2020 04:10 11,9 C 94 % 1.011,5 hpa 6,4 km/h N
24.10.2020 04:20 11,9 C 94 % 1.011,4 hpa 4,8 km/h N
24.10.2020 04:30 11,8 C 94 % 1.011,5 hpa 1,6 km/h 6,4 km/h S/SW
24.10.2020 04:40 11,7 C 94 % 1.011,6 hpa 1,6 km/h N
24.10.2020 04:50 11,6 C 94 % 1.011,5 hpa 6,4 km/h N
24.10.2020 05:00 11,5 C 94 % 1.011,5 hpa 3,2 km/h N
24.10.2020 05:10 11,4 C 94 % 1.011,5 hpa N
24.10.2020 05:20 11,3 C 94 % 1.011,6 hpa 4,8 km/h N
24.10.2020 05:30 11,3 C 94 % 1.011,6 hpa N
24.10.2020 05:40 11,2 C 94 % 1.011,7 hpa N
24.10.2020 05:50 11,2 C 94 % 1.011,7 hpa N
24.10.2020 06:00 11,3 C 94 % 1.011,7 hpa N
24.10.2020 06:10 11,3 C 94 % 1.011,7 hpa N
24.10.2020 06:20 11,3 C 94 % 1.011,8 hpa 3,2 km/h N
24.10.2020 06:30 11,3 C 94 % 1.011,7 hpa 4,8 km/h N
24.10.2020 06:40 11,3 C 94 % 1.011,8 hpa 6,4 km/h N
24.10.2020 06:50 11,3 C 94 % 1.011,8 hpa 3,2 km/h N
24.10.2020 07:00 11,4 C 94 % 1.011,8 hpa 1,6 km/h 9,7 km/h S
24.10.2020 07:10 11,5 C 94 % 1.011,8 hpa 3,2 km/h 17,7 km/h S/SW
24.10.2020 07:20 11,6 C 94 % 1.011,8 hpa 3,2 km/h 17,7 km/h S/SW
24.10.2020 07:30 11,7 C 94 % 1.011,9 hpa 3,2 km/h 9,7 km/h W
24.10.2020 07:40 11,8 C 94 % 1.011,8 hpa 4,8 km/h N
24.10.2020 07:50 11,8 C 94 % 1.011,9 hpa N
24.10.2020 08:00 11,8 C 94 % 1.011,9 hpa 6,4 km/h N
24.10.2020 08:10 11,9 C 94 % 1.012,2 hpa 6,4 km/h N
24.10.2020 08:20 11,9 C 94 % 1.012,1 hpa 6,4 km/h N
24.10.2020 08:30 12,0 C 93 % 1.012,2 hpa 1,6 km/h 9,7 km/h W
24.10.2020 08:40 12,1 C 93 % 1.012,2 hpa 2 W/m 6,4 km/h N
24.10.2020 08:50 12,1 C 93 % 1.012,3 hpa 3 W/m 8,0 km/h N
24.10.2020 09:00 12,2 C 93 % 1.012,3 hpa 8 W/m 1,6 km/h 6,4 km/h S/SW
24.10.2020 09:10 12,2 C 93 % 1.012,4 hpa 9 W/m 4,8 km/h N
24.10.2020 09:20 12,3 C 92 % 1.012,5 hpa 21 W/m 8,0 km/h N
24.10.2020 09:30 12,3 C 92 % 1.012,5 hpa 37 W/m 1,6 km/h 8,0 km/h S/SW
24.10.2020 09:40 12,4 C 92 % 1.012,6 hpa 31 W/m 1,6 km/h 8,0 km/h S/SW
24.10.2020 09:50 12,5 C 92 % 1.012,5 hpa 34 W/m 1,6 km/h 6,4 km/h S/SW
24.10.2020 10:00 12,6 C 92 % 1.012,7 hpa 66 W/m 1,6 km/h 8,0 km/h S/SW
24.10.2020 10:10 12,7 C 91 % 1.012,7 hpa 62 W/m 1,6 km/h 14,5 km/h S/SW
24.10.2020 10:20 12,8 C 91 % 1.012,7 hpa 75 W/m 1,6 km/h 9,7 km/h S/SW
24.10.2020 10:30 12,9 C 91 % 1.012,8 hpa 71 W/m 1,6 km/h 9,7 km/h S
24.10.2020 10:40 13,2 C 90 % 1.012,8 hpa 164 W/m 10 min 3,2 km/h 12,9 km/h S/SW
24.10.2020 10:50 13,7 C 88 % 1.012,4 hpa 139 W/m 10 min 1,6 km/h 11,3 km/h S
24.10.2020 11:00 14,0 C 86 % 1.012,5 hpa 177 W/m 10 min 1,6 km/h 9,7 km/h S
24.10.2020 11:10 14,2 C 85 % 1.012,4 hpa 129 W/m 10 min 1,6 km/h 8,0 km/h S
24.10.2020 11:20 14,3 C 84 % 1.012,3 hpa 184 W/m 10 min 1,6 km/h 12,9 km/h S/SW
24.10.2020 11:30 14,7 C 82 % 1.012,4 hpa 230 W/m 10 min 3,2 km/h 19,3 km/h S/SW
24.10.2020 11:40 14,9 C 81 % 1.012,3 hpa 254 W/m 10 min 3,2 km/h 11,3 km/h S/SW
24.10.2020 11:50 15,0 C 80 % 1.012,6 hpa 209 W/m 10 min 3,2 km/h 17,7 km/h S/SW
24.10.2020 12:00 15,0 C 80 % 1.012,7 hpa 160 W/m 10 min 3,2 km/h 19,3 km/h S/SW
24.10.2020 12:10 15,0 C 80 % 1.012,8 hpa 109 W/m 3,2 km/h 14,5 km/h S/SW
24.10.2020 12:20 15,0 C 80 % 1.012,7 hpa 129 W/m 10 min 4,8 km/h 17,7 km/h S
24.10.2020 12:30 15,0 C 80 % 1.012,8 hpa 89 W/m 6,4 km/h 19,3 km/h S/SW
24.10.2020 12:40 15,0 C 82 % 1.012,7 hpa 97 W/m 4,8 km/h 17,7 km/h S/SW
24.10.2020 12:50 14,9 C 82 % 1.012,5 hpa 164 W/m 10 min 3,2 km/h 17,7 km/h S/SW
24.10.2020 13:00 15,0 C 81 % 1.012,5 hpa 211 W/m 10 min 4,8 km/h 19,3 km/h S/SW
24.10.2020 13:10 15,2 C 80 % 1.012,4 hpa 214 W/m 10 min 4,8 km/h 17,7 km/h S
24.10.2020 13:20 15,5 C 78 % 1.012,1 hpa 299 W/m 10 min 8,0 km/h 22,5 km/h S/SW
24.10.2020 13:30 15,8 C 77 % 1.011,8 hpa 198 W/m 10 min 6,4 km/h 20,9 km/h S/SW
24.10.2020 13:40 15,8 C 77 % 1.011,8 hpa 200 W/m 10 min 8,0 km/h 22,5 km/h S/SW
24.10.2020 13:50 15,9 C 76 % 1.011,8 hpa 196 W/m 10 min 8,0 km/h 17,7 km/h S/SW
24.10.2020 14:00 15,9 C 75 % 1.011,7 hpa 154 W/m 10 min 9,7 km/h 25,7 km/h S/SW
24.10.2020 14:10 15,8 C 75 % 1.011,7 hpa 81 W/m 6,4 km/h 24,1 km/h S/SW
24.10.2020 14:20 15,8 C 75 % 1.011,6 hpa 100 W/m 6,4 km/h 29,0 km/h S/SW
24.10.2020 14:30 15,7 C 74 % 1.011,6 hpa 125 W/m 10 min 9,7 km/h 25,7 km/h S/SW
24.10.2020 14:40 15,7 C 74 % 1.011,7 hpa 112 W/m 9,7 km/h 24,1 km/h W
24.10.2020 14:50 15,7 C 74 % 1.011,5 hpa 62 W/m 8,0 km/h 22,5 km/h S/SW
24.10.2020 15:00 15,6 C 74 % 1.011,7 hpa 48 W/m 9,7 km/h 33,8 km/h S/SW
24.10.2020 15:10 15,7 C 73 % 1.011,6 hpa 353 W/m 10 min 6,4 km/h 30,6 km/h S/SW
24.10.2020 15:20 16,3 C 70 % 1.011,6 hpa 257 W/m 10 min 8,0 km/h 25,7 km/h S/SW
24.10.2020 15:30 16,3 C 70 % 1.011,6 hpa 116 W/m 6,4 km/h 19,3 km/h S/SW
24.10.2020 15:40 16,1 C 71 % 1.011,5 hpa 114 W/m 6,4 km/h 22,5 km/h S
24.10.2020 15:50 15,9 C 72 % 1.011,6 hpa 69 W/m 4,8 km/h 16,1 km/h S/SW
24.10.2020 16:00 15,8 C 72 % 1.011,5 hpa 46 W/m 4,8 km/h 20,9 km/h S/SW
24.10.2020 16:10 15,6 C 73 % 1.011,5 hpa 38 W/m 4,8 km/h 16,1 km/h S/SW
24.10.2020 16:20 15,4 C 73 % 1.011,4 hpa 45 W/m 6,4 km/h 20,9 km/h S/SW
24.10.2020 16:30 15,2 C 74 % 1.011,5 hpa 42 W/m 3,2 km/h 20,9 km/h S/SW
24.10.2020 16:40 15,1 C 74 % 1.011,4 hpa 43 W/m 4,8 km/h 19,3 km/h S/SW
24.10.2020 16:50 15,0 C 75 % 1.011,3 hpa 50 W/m 3,2 km/h 16,1 km/h S
24.10.2020 17:00 15,0 C 75 % 1.011,2 hpa 45 W/m 6,4 km/h 19,3 km/h S/SW
24.10.2020 17:10 15,0 C 75 % 1.011,2 hpa 37 W/m 1,6 km/h 14,5 km/h S/SW
Minimum: 10,8 C
22:40
70 %
15:30
1.009,4 hpa
17:30

17:10

08:30

09:20
15,0 km/h
17:10
W
3,5%
Maximum: 16,3 C
15:30
95 %
04:00
1.012,8 hpa
12:30
0,254 l
01:10
353 W/m
15:10
9,7 km/h
15:00
33,8 km/h
15:00
N
59,7%
Durchschnitt/
Summe:
13,0 C 89 % 1.011,4 hpa # 0,3 l 42 W/m 1,7 km/h 7,8 km/h O
83,9